Freeland, MI

9:31 AM EST on February 19, 2017 (GMT -0500)
MBS International

Weather History for KMBS - September, 2013

Change the Weather History Date:

Monday, September 30, 2013

  Actual Average Record
Temperature  
Mean Temperature 60 °F 56 °F  
Max Temperature 70 °F 66 °F 86 °F (2002)
Min Temperature 49 °F 45 °F 34 °F (2003)
Degree Days  
Heating Degree Days 5    
Month to date heating degree days 139  
Since 1 July heating degree days 160  
Cooling Degree Days 0    
Month to date cooling degree days 56  
Year to date cooling degree days 663  
Growing Degree Days 9 (Base 50)    
Moisture  
Dew Point 51 °F    
Average Humidity 74    
Maximum Humidity 100    
Minimum Humidity 47    
Precipitation  
Precipitation 0.00 in 0.11 in 0.33 in (1998)
Month to date precipitation 1.03 3.83  
Year to date precipitation 25.91 24.35  
Snow  
Snow 0.00 in - - ()
Month to date snowfall 0.0  
Since 1 July snowfall 0.0  
Since 1 September snowfall 0.0  
Snow Depth 0.00 in    
Sea Level Pressure  
Sea Level Pressure 30.01 in    
Wind  
Wind Speed 3 mph (South)    
Max Wind Speed 13 mph    
Max Gust Speed 15 mph    
Visibility 4 miles    
Events Fog    
T = Trace of Precipitation, MM = Missing Value Source: NWS Daily Summary

Daily Weather History Graph

Daily Weather History Graph

Search for Another Location

Airport or City:

Trip Planner

Search our weather history database for the weather conditions in past years. The results will help you decide how hot, cold, wet, or windy it might be!

Date:

Astronomy

Sep. 30, 2013 Rise Set
Actual Time 7:32 AM EDT 7:18 PM EDT
Civil Twilight 7:04 AM EDT 7:47 PM EDT
Nautical Twilight 6:31 AM EDT 8:20 PM EDT
Astronomical Twilight 5:57 AM EDT 8:53 PM EDT
Moon 3:02 AM EDT (9/30) 4:54 PM EDT (9/30)
Length of Visible Light 12h 42m
Length of Day
11h 45m
Waning Crescent, 19% of the Moon is Illuminated
Sep 30
Waning Crescent
Oct 4
New
Oct 11
First Quarter
Oct 18
Full
Oct 26
Last Quarter

Hourly Weather History & Observations

Time (EDT) Temp. Dew Point Humidity Pressure Visibility Wind Dir Wind Speed Gust Speed Precip Events Conditions
12:26 AM 53.6 °F 51.8 °F 94% 30.02 in 1.5 mi Calm Calm - N/A   Partly Cloudy
12:29 AM 51.8 °F 51.8 °F 100% 30.02 in 0.8 mi Calm Calm - N/A   Mist
12:42 AM 53.6 °F 51.8 °F 94% 30.02 in 0.2 mi Calm Calm - N/A Fog Fog
12:53 AM 53.1 °F 52.0 °F 96% 30.03 in 0.2 mi Calm Calm - N/A Fog Fog
1:05 AM 51.8 °F 51.8 °F 100% 30.02 in 0.2 mi Calm Calm - N/A Fog Fog
1:15 AM 51.8 °F 51.8 °F 100% 30.02 in 0.5 mi Calm Calm - N/A Fog Fog
1:46 AM 51.8 °F 50.0 °F 94% 30.02 in 0.2 mi Calm Calm - N/A Fog Fog
1:53 AM 52.0 °F 51.1 °F 97% 30.02 in 0.5 mi Calm Calm - N/A Fog Fog
2:11 AM 53.6 °F 51.8 °F 94% 30.02 in 0.2 mi Calm Calm - N/A Fog Fog
2:33 AM 51.8 °F 50.0 °F 94% 30.02 in 0.5 mi Calm Calm - N/A Fog Fog
2:44 AM 51.8 °F 50.0 °F 94% 30.02 in 3.0 mi Calm Calm - N/A   Overcast
2:53 AM 50.0 °F 48.9 °F 96% 30.02 in 10.0 mi Calm Calm - N/A   Overcast
3:15 AM 50.0 °F 48.2 °F 94% 30.01 in 1.5 mi Calm Calm - N/A   Overcast
3:26 AM 50.0 °F 48.2 °F 94% 30.01 in 0.5 mi Calm Calm - N/A Fog Fog
3:53 AM 48.9 °F 48.0 °F 97% 30.01 in 0.2 mi Calm Calm - N/A Fog Fog
4:37 AM 51.8 °F 50.0 °F 94% 30.01 in 0.2 mi Calm Calm - N/A Fog Fog
4:47 AM 51.8 °F 50.0 °F 94% 30.02 in 0.5 mi Calm Calm - N/A Fog Fog
4:53 AM 51.1 °F 50.0 °F 96% 30.02 in 0.5 mi Calm Calm - N/A Fog Fog
5:11 AM 51.8 °F 51.8 °F 100% 30.02 in 0.2 mi Calm Calm - N/A Fog Fog
5:41 AM 51.8 °F 50.0 °F 94% 30.01 in 0.5 mi Calm Calm - N/A Fog Fog
5:53 AM 51.1 °F 50.0 °F 96% 30.01 in 0.2 mi Calm Calm - N/A Fog Fog
6:09 AM 51.8 °F 50.0 °F 94% 30.01 in 0.5 mi Calm Calm - N/A Fog Fog
6:16 AM 51.8 °F 50.0 °F 94% 30.01 in 0.2 mi Calm Calm - N/A Fog Fog
6:49 AM 50.0 °F 48.2 °F 94% 30.02 in 0.8 mi Calm Calm - N/A   Mist
6:53 AM 50.0 °F 48.9 °F 96% 30.03 in 0.5 mi Calm Calm - N/A   Mist
7:31 AM 51.8 °F 50.0 °F 94% 30.03 in 0.2 mi Calm Calm - N/A Fog Fog
7:53 AM 52.0 °F 51.1 °F 97% 30.04 in 0.2 mi Calm Calm - N/A Fog Fog
8:07 AM 51.8 °F 51.8 °F 100% 30.04 in 0.2 mi Calm Calm - N/A Fog Fog
8:25 AM 53.6 °F 51.8 °F 94% 30.04 in 0.2 mi Calm Calm - N/A Fog Fog
8:53 AM 54.0 °F 53.1 °F 97% 30.04 in 0.1 mi Calm Calm - N/A Fog Fog
9:03 AM 53.6 °F 53.6 °F 100% 30.04 in 0.1 mi Calm Calm - N/A Fog Fog
9:51 AM 55.4 °F 53.6 °F 94% 30.03 in 0.1 mi Calm Calm - N/A Fog Fog
9:53 AM 55.0 °F 54.0 °F 96% 30.04 in 0.1 mi Calm Calm - N/A Fog Fog
10:14 AM 55.4 °F 55.4 °F 100% 30.03 in 0.8 mi ESE 3.5 mph - N/A   Overcast
10:37 AM 55.4 °F 55.4 °F 100% 30.01 in 1.5 mi ESE 4.6 mph - N/A   Overcast
10:53 AM 55.9 °F 55.0 °F 97% 30.02 in 2.5 mi SSE 4.6 mph - N/A   Overcast
11:16 AM 57.2 °F 55.4 °F 94% 30.01 in 10.0 mi Calm Calm - N/A   Overcast
11:36 AM 59.0 °F 53.6 °F 82% 30.01 in 10.0 mi South 3.5 mph - N/A   Overcast
11:53 AM 59.0 °F 55.0 °F 87% 30.00 in 10.0 mi Variable 3.5 mph - N/A   Overcast
12:24 PM 62.6 °F 53.6 °F 72% 30.00 in 10.0 mi SSE 3.5 mph - N/A   Partly Cloudy
12:53 PM 64.0 °F 53.1 °F 67% 30.00 in 10.0 mi SW 4.6 mph - N/A   Clear
1:53 PM 66.9 °F 52.0 °F 59% 29.99 in 10.0 mi SSW 8.1 mph - N/A   Scattered Clouds
2:53 PM 68.0 °F 50.0 °F 52% 29.95 in 10.0 mi SE 5.8 mph - N/A   Scattered Clouds
3:53 PM 69.1 °F 48.0 °F 47% 29.95 in 10.0 mi Variable 3.5 mph - N/A   Mostly Cloudy
4:53 PM 70.0 °F 48.0 °F 46% 29.94 in 10.0 mi WSW 9.2 mph - N/A   Mostly Cloudy
5:53 PM 69.1 °F 48.0 °F 47% 29.93 in 10.0 mi SW 5.8 mph - N/A   Clear
6:53 PM 66.0 °F 50.0 °F 56% 29.94 in 10.0 mi Calm Calm - N/A   Clear
7:53 PM 61.0 °F 50.0 °F 67% 29.94 in 10.0 mi South 3.5 mph - N/A   Clear
8:53 PM 59.0 °F 48.9 °F 69% 29.95 in 10.0 mi Calm Calm - N/A   Clear
9:53 PM 57.9 °F 48.9 °F 72% 29.96 in 10.0 mi Calm Calm - N/A   Clear
10:53 PM 57.0 °F 48.9 °F 74% 29.96 in 10.0 mi Calm Calm - N/A   Clear
11:53 PM 55.9 °F 50.0 °F 80% 29.95 in 10.0 mi South 6.9 mph - N/A   Clear